Weather in Mokino

Russia / Kirov Oblast     57°26′18″N   49°11′23″E
temp.,
°C
wind,
m/s
gust,
m/s
humid.,
%
clouds,
%
prec.,
mm/h
press.,
hPa
HPBL,
m
25 february, thu
thu2500:00−25wsw119687 0.0 103420
03:00−25ssw229876 0.0 103319
06:00−25sse339877 0.0 103061
09:00−22sse589589 0.0 1027251
12:00−19sse61092100 0.0 1024364
15:00−17se61195100 0.5 1021456
18:00−18sse61195100 0.8 1020565
21:00−18se51095100 1.0 1019469
26 february, fri
fri2600:00−19se51095100 0.1 1018417
03:00−19se5996100 0.3 1019372
06:00−21se4997100 0.1 1017263
09:00−20se5109597 0.1 1017362
12:00−17se61093100 0.0 1015438
15:00−16se71293100 0.1 1013489
18:00−17se81592100 0.1 1009555
21:00−15se91694100 0.8 1005575
27 february, sat
sat2700:00−16se81595100 3.6 1001631
03:00−15ese71395100 5.6 1000547
06:00−15ese61194100 0.7 999466
09:00−14e61094100 1.1 999464
12:00−12e6992100 0.3 1000509
15:00−11ene5892100 0.6 1002579
18:00−12ne5109499 0.3 1003465
21:00−14ne5109399 0.4 1005375
28 february, sun
sun2800:00−16ne499498 0.1 1006298
03:00−19nne499694 0.1 1008204
06:00−21nne489537 0.0 1009180
09:00−19nne489321 0.0 1011298
12:00−16nne478930 0.0 1012432
15:00−15nne478860 0.0 1014533
18:00−19n3496100 0.0 101663
21:00−21n349771 0.0 101855
1 march, mon
mon100:00−22n33970 0.0 102026
03:00−22nnw23970 0.0 102122
06:00−23nw22990 0.0 102220
09:00−19wnw23957 0.0 1021130
12:00−15wsw359232 0.0 1019258
15:00−13sw589240 0.0 1016320
18:00−11sw61194100 0.0 1012359
21:00−10sw61194100 1.3 1008409